Weather in Shantou

China     23°27′21″N   116°46′26″E
temp.,
°C
wind,
m/s
gust,
m/s
humid.,
%
clouds,
%
prec.,
mm/h
press.,
hPa
HPBL,
m
23 october, sat
sat2323:00+18nnw2376100 0.0 1022284
02:00+18nnw2376100 0.0 1021277
05:00+18nnw2375100 0.0 1020231
08:00+19nw2374100 0.0 1022284
11:00+22n346489 0.0 1022841
14:00+24ne445975 0.0 10191244
17:00+22nne3566100 0.0 1020650
20:00+21n2469100 0.0 1021382
24 october, sun
sun2423:00+20nnw237181 0.0 1022280
02:00+19nnw237281 0.0 1020226
05:00+19nnw237440 0.0 1020208
08:00+19nnw237274 0.0 1021305
11:00+24nne235930 0.0 10201012
14:00+25ne345987 0.0 10171293
17:00+24ene2366100 0.1 1017840
20:00+23nne2369100 0.1 1019351
25 october, mon
mon2523:00+22n2369100 0.0 1020261
02:00+21nnw237063 0.0 1018221
05:00+19nnw24750 0.0 1018168
08:00+20nnw34700 0.0 1019303
11:00+25ne24560 0.0 10181022
14:00+27e345241 0.0 10151444
17:00+25e556397 0.0 1015687
20:00+24e696587 0.0 1017592
26 october, tue
tue2623:00+22ene58705 0.0 1017486
02:00+21ne24720 0.0 1016197
05:00+20nne11745 0.0 101670
08:00+22nne12685 0.0 1017269
11:00+26ne23545 0.0 10171100
14:00+28e235035 0.0 10141512
17:00+25e556614 0.0 1014630
20:00+24ene477456 0.1 1016517
27 october, wed
wed2723:00+23ne367846 0.1 1016366
02:00+22nne127821 0.1 1016165
05:00+21n227845 0.0 1016122
08:00+22nne127216 0.0 1018336
11:00+24nne236560 0.0 1017848
14:00+27ene335759 0.1 10151329
17:00+25e446593 0.1 1015891
20:00+24ene587269 0.1 1017570